COSMOS 1900 DEB

Satellite information

Favourite Embed

Satellite Type and Status

DEBRISIN ORBIT

Key statistics

Satellite COSMOS 1900 DEB at a glance.

Uptime

13881

Days in orbit

Revolutions

≈ 14.6

Per day

Orbit

LEO

Low Earth Orbit

Inclination

66.1

Latest

Satellite identification and parameters

Extended collection of information and parameters for COSMOS 1900 DEB.

Object identification

Identified? True

Debris? True

Object name: COSMOS 1900 DEB

International designator: 1987-101E

Object number (NORAD): 43500

Object ID (CCSDS): 43500

Country: COMMONWEALTH OF INDEPENDENT STATES (CIS)

Current information (Y/N): Y

RCS size: SMALL

Orbital parameters

Period: 98.609 minutes

Inclination: 66.0842 deg

SMA: 7070.322 km

Apoapsis: 718.853 km

Periapsis: 665.52 km

RAAN: 160.7381 deg

Eccentricy: 0.00377163

Argument of periapsis: 215.6324 deg

Mean anomaly: 163.956 deg

Mean motion: 14.60306443 rev/day

Mean motion (dot): 0.00001673 rev/day2

B* drag term: 0.00036415925 1/REarth

Two-line elements (TLE)

Creation date: Dec. 8, 2025, 3:46 a.m.

Reference frame: TEME

Reference center: EARTH

Epoch: Dec. 7, 2025, 6:45 p.m. UTC

TLE line 0: 0 COSMOS 1900 DEB

TLE line 1: 1 43500U 87101E 25341.78161549 .00001673 00000-0 36416-3 0 9995

TLE line 2: 2 43500 66.0842 160.7381 0037716 215.6324 163.9560 14.60306443640622

Live tracking on map

Real-time ground track for satellite COSMOS 1900 DEB.

In-orbit conjunctions

A list of the most updated potential collisions computed for object COSMOS 1900 DEB.

Target Orbit TCA Probability of collision Miss distance Type
DELTA 1 DEB SSO 2025-01-05 16:53:20 0.0004231195 75.0 (m) DEBRIS
CZ-6A DEB SSO 2024-11-15 19:57:38 0.0001062516 339.0 (m) DEBRIS
DMSP 5D-2 F11 DEB SSO 2024-11-10 04:30:37 0.0004117728 886.0 (m) DEBRIS

Associated space launch

Active radar satellite for ocean surveillance powered by a nuclear reactor.

COSMOS 1900 DEB was lifted into orbit during the mission ‘Tsiklon-2 | US-A 31’, on board a Tsiklon-2 space rocket.

The launch took place on Dec. 12, 1987, 5:40 a.m. from 90.

For more information about the launch, click the button.

Launch to space Tsiklon-2 | US-A 31
Tsiklon-2 | US-A 31

Agency: N/A

Status: Launch Successful

Launch date: Dec. 12, 1987, 5:40 a.m. UTC

Rocket: Tsiklon-2

Launch pad: 90

Location: Baikonur Cosmodrome, Republic of Kazakhstan

...

Latest news about this satellite

There are no fresh news available about this satellite. Check back as we update our databases every day.


Newsletter sign-up

Weekly statistics, charts and insights to help you stay on top of the space industry.